sat.trackr.live / text

‹ back to catalog

STARLINK-3238

NORAD 49734 · 2021-115L

PAYLOAD ACTIVE UNKNOWN

§ Identity

Operator
Country
US
Launch date
2021-12-02
Launch site
AFETR
Launch vehicle
Mass (kg)
RCS (m²)

Purposes: comms

External: N2YO · Heavens-Above · Gunter

§ Orbital elements

Epoch: 2026-09-20T05:14:20.651712Z

Period
94.01 min
Inclination
53.1609°
Eccentricity
0.0001168
Mean motion
15.31698402 rev/d
Perigee alt
469.9 km
Apogee alt
471.5 km
Semi-major
6,848.9 km
B*
7.9771e-6
RAAN
341.2343°
Arg perigee
79.2241°
Mean anomaly
280.8892°
Rev number
26,509

§ Raw data

STARLINK-32381 49734U 21115L   26263.21829458 -.00000118  00000+0  79771-5 0  99912 49734  53.1609 341.2343 0001168  79.2241 280.8892 15.31698402265092

JSON: /api/v1/satellites/49734 · /tle

For live sub-satellite position, see the globe view (requires WebGL).

§ Visibility from observer

Set your observer location to see the next 7 days of passes ≥ 10°. The values pass through the URL so the page stays shareable.

No JS? Fill the form by hand. The geolocation button needs JavaScript.